Weather Roundup
Issued by NWS Chicago, IL

Home | Current Version | Previous Version | Graphics & Text | Print | Product List | Glossary On
Versions: 1 2 3 4 5 6 7 8 9 10 11 12 13 14 15 16 17 18 19 20 21 22 23 24 25 26 27 28 29 30 31 32 33 34 35 36 37 38 39 40 41 42 43 44 45 46 47 48 49 50
000
NZUS59 KLOT 010910
HRRLOT

CHICAGO AREA WEATHER ROUNDUP
NATIONAL WEATHER SERVICE CHICAGO/ROMEOVILLE IL
400 AM CDT MON SEP 01 2014

NOTE: "FAIR" INDICATES FEW OR NO CLOUDS BELOW 12,000 FEET WITH NO
SIGNIFICANT WEATHER AND/OR OBSTRUCTIONS TO VISIBILITY.

* THESE STATIONS ARE NOT UNDER NWS QUALITY CONTROL. THEY ALSO MAY NOT
  REPORT WEATHER SUCH AS PRECIPITATION OR FOG.

ILZ005-006-012>014-019>023-011000-
NORTHEAST ILLINOIS

CITY           SKY/WX    TMP DP  RH WIND       PRES   REMARKS
OHARE          PTCLDY    74  67  78 S8        29.82F
MIDWAY         MOCLDY    75  71  87 S10       29.83F
AURORA         MOCLDY    71  68  90 S6        29.81F FOG
LANSING*         N/A    N/A N/A N/A MISG        N/A
JOLIET*        PTCLDY    73  69  88 S8        29.83F
WAUKEGAN       PTCLDY    73  69  87 S14       29.80F
DUPAGE AIRPORT PTCLDY    72  69  90 S10       29.81F
WHEELING       PTCLDY    74  70  87 S8        29.83F
KANKAKEE*      CLEAR     71  70  96 S10       29.85F
MORRIS*        MOCLDY    72  72 100 S6        29.81F
LEWIS AIRPORT* PTCLDY    71  70  98 S8        29.82F
NORTHERLY IS     N/A     74  68  81 S8          N/A
$$

WIZ051-052-058>065-066-070>072-011000-
SOUTHEAST WISCONSIN

CITY           SKY/WX    TMP DP  RH WIND       PRES   REMARKS
MILWAUKEE      MOCLDY    73  69  87 SW10      29.79F
KENOSHA*       PTCLDY    71  69  93 S7        29.81F
RACINE*        PTCLDY    72  69  90 S7        29.81F
BURLINGTON     PTCLDY    69  68  97 S6        29.79F
WAUKESHA       PTCLDY    68  66  94 S3        29.80F FOG
WEST BEND      CLOUDY    70  64  83 SW6       29.79S
$$

INZ001>003-010>013-019-020-011000-
NORTHWEST INDIANA

CITY           SKY/WX    TMP DP  RH WIND       PRES   REMARKS
GARY*          PTCLDY    74  71  91 S5        29.85F
MICHIGAN CITY* NOT AVBL
RENSSELAER*    NOT AVBL
VALPARAISO     CLEAR     71  69  93 S6        29.88S
$$

LMZ740>746-011000-
SOUTHERN LAKE MICHIGAN

STATION/POSITION TIME  SKY/WX   TEMP WIND        PRES    VSBY
                                AIR  DIR/SP/G
                 (UTC)          (F)  (DEG/KT/KT) (MB)    (MI)
HARRISON CRIB    0900            73  190/ 15/ 17   N/A
BURNHAM HARBOR   0900            74  200/  8/ 13   N/A
CALUMET HARBOR   0900            74  180/  8/ 12 1009.3F
BURNS HARBOR     NOT AVBL
MICHIGAN CITY    0900            72  150/ 11/ 17   N/A
$$

ABBREVIATIONS USED IN REMARKS
   TC - TEMPERATURE IN CELSIUS
  WCI - WIND CHILL INDEX
   HX - HEAT INDEX
  VSB - VISIBILITY
$$



USA.gov is the U.S. government's official web portal to all federal, state and local government web resources and services.